Simultaneous Nadir Overpasses (SNOs) Predictions

Prediction of SNOs between AQUA and GOES-15 Satellite Orbit:

Table of predicted SNOs for the next 14.0 days since TLE Epoch: 2/10/2024
Index Date Time (AQUA) AQUA Lat,Lon GOES-15 Lat,Lon Distance(km) Time Diff (sec)
1 02/10/2024 21:56:43 0.06, 61.31 0.01, 61.47 18.20 80
2 02/12/2024 21:41:10 -0.80, 65.10 0.00, 61.44 416.91 80
3 02/13/2024 10:01:41 -0.31, 60.14 -0.00, 61.53 157.69 80
4 02/15/2024 09:46:06 0.51, 63.95 -0.00, 61.51 277.59 80
5 02/15/2024 22:06:29 0.51, 59.01 0.00, 61.41 272.51 80
6 02/17/2024 21:50:53 -0.31, 62.83 0.01, 61.40 162.55 80
7 02/18/2024 10:11:24 -0.77, 57.86 -0.01, 61.49 412.46 80
8 02/20/2024 09:55:47 0.06, 61.67 0.00, 61.48 22.59 80
9 02/22/2024 09:40:09 0.89, 65.49 0.01, 61.47 457.74 80
10 02/22/2024 22:00:31 0.15, 60.56 -0.01, 61.38 92.21 80
